User: anonymous   Login
Location: Bremen
(53.0793°N, 8.8017°E)
Time: 20:04:27
(UTC+02:00)
Language:

SR - Orbit

View from above orbital plane
View from above orbital plane
View from above satellite
View from above satellite

Ground track
Ground track

The orbit data is extracted from the following two-line orbital elements,

1 00046U 60007B   24109.67749887  .00004612  00000-0  90050-3 0  9995
2 00046  66.6905 216.3797 0201425 167.7117 192.9015 14.51721992342257
Epoch (UTC): 18 April 2024 16:15:35
Eccentricity: 0.0201425
inclination: 66.6905°
perigee height: 577 km
apogee height: 863 km
right ascension of ascending node: 216.3797°
argument of perigee: 167.7117°
revolutions per day: 14.51721992
mean anomaly at epoch: 192.9015°
orbit number at epoch: 34225

The dashed part of the orbit path shows where the satellite is in the earth's shadow,  

DLR